Location: Castle Hill Houses
(40.8186°N, 73.8497°W)
Time: 18:57:46
(UTC+00:00)

Cosmos 2341 Rocket - Pass Details

Date: 26 January 2020
Orbit: 967 x 1005 km, 82.9° (Epoch: 21 February)

Event Time Altitude Azimuth Distance (km) Brightness Sun altitude
Rises 10:08:04 0° 349° (N) 3,687 6.9 -23.3°
Reaches altitude 10° 10:10:36 10° 347° (NNW) 2,731 6.2 -22.8°
Maximum altitude 10:16:46 65° 267° (W) 1,061 3.9 -21.6°
Drops below altitude 10° 10:22:52 10° 187° (S) 2,699 6.3 -20.5°
Sets 10:25:22 0° 184° (S) 3,642 7.1 -20.0°
